Wahoo, NE

3:14 PM CDT on August 28, 2016 (GMT -0500)
Wahoo Municipal

Weather History for KAHQ - July, 2012

Change the Weather History Date:

Monday, July 23, 2012

  Actual Average Record
Temperature  
Mean Temperature 86 °F -  
Max Temperature 103 °F 86 °F 103 °F (2012)
Min Temperature 69 °F 64 °F 49 °F (1980)
Cooling Degree Days 21    
Growing Degree Days 36 (Base 50)    
Moisture  
Dew Point 63 °F    
Average Humidity 53    
Maximum Humidity 81    
Minimum Humidity 21    
Precipitation  
Precipitation 0.00 in - - ()
Sea Level Pressure  
Sea Level Pressure 29.97 in    
Wind  
Wind Speed 4 mph (SSW)    
Max Wind Speed 14 mph    
Max Gust Speed 18 mph    
Visibility 10 miles    
Events      
Averages and records for this station are not official NWS values.
T = Trace of Precipitation, MM = Missing Value Source: NWS Daily Summary

Daily Weather History Graph

Daily Weather History Graph

Search for Another Location

Airport or City:

Trip Planner

Search our weather history database for the weather conditions in past years. The results will help you decide how hot, cold, wet, or windy it might be!

Date:

Astronomy

Jul. 23, 2012 Rise Set
Actual Time 6:13 AM CDT 8:51 PM CDT
Civil Twilight 5:41 AM CDT 9:23 PM CDT
Nautical Twilight 5:01 AM CDT 10:03 PM CDT
Astronomical Twilight 4:16 AM CDT 10:48 PM CDT
Moon 11:09 AM CDT (7/23) 11:02 PM CDT (7/23)
Length of Visible Light 15h 41m
Length of Day
14h 37m
Waxing Crescent, 22% of the Moon is Illuminated
Jul 23
Waxing Crescent
Jul 26
First Quarter
Aug 1
Full
Aug 9
Last Quarter
Aug 17
New

Hourly Weather History & Observations

Time (CDT) Temp. Heat Index Dew Point Humidity Pressure Visibility Wind Dir Wind Speed Gust Speed Precip Events Conditions
12:15 AM 75.0 °F - 64.4 °F 69% 29.96 in 10.0 mi SSE 4.6 mph - N/A   Clear
12:35 AM 73.4 °F - 64.0 °F 72% 29.96 in 10.0 mi South 5.8 mph - N/A   Clear
1:15 AM 73.4 °F - 63.5 °F 71% 29.96 in 10.0 mi South 4.6 mph - N/A   Clear
1:35 AM 72.3 °F - 63.7 °F 74% 29.96 in 10.0 mi Calm Calm - N/A   Clear
1:55 AM 72.0 °F - 63.7 °F 75% 29.97 in 10.0 mi Calm Calm - N/A   Clear
2:15 AM 72.3 °F - 63.5 °F 74% 29.97 in 10.0 mi Calm Calm - N/A   Clear
2:35 AM 70.7 °F - 63.5 °F 78% 29.98 in 10.0 mi Calm Calm - N/A   Clear
2:55 AM 71.8 °F - 63.0 °F 74% 29.98 in 10.0 mi South 4.6 mph - N/A   Clear
3:15 AM 70.3 °F - 63.3 °F 78% 29.99 in 10.0 mi SE 4.6 mph - N/A   Clear
3:35 AM 71.2 °F - 63.7 °F 77% 29.99 in 10.0 mi Calm Calm - N/A   Clear
3:55 AM 72.3 °F - 63.3 °F 73% 29.99 in 10.0 mi Calm Calm - N/A   Clear
4:15 AM 71.8 °F - 63.3 °F 75% 29.99 in 10.0 mi South 5.8 mph - N/A   Clear
4:35 AM 71.2 °F - 63.1 °F 75% 29.98 in 10.0 mi South 5.8 mph - N/A   Clear
4:55 AM 72.5 °F - 62.1 °F 70% 29.99 in 10.0 mi South 3.5 mph - N/A   Clear
5:15 AM 70.7 °F - 62.8 °F 76% 30.00 in 10.0 mi Calm Calm - N/A   Clear
5:35 AM 69.8 °F - 63.0 °F 79% 30.02 in 10.0 mi NNW 4.6 mph - N/A   Clear
5:55 AM 69.6 °F - 63.0 °F 79% 30.03 in 10.0 mi North 4.6 mph - N/A   Clear
6:15 AM 69.3 °F - 63.0 °F 80% 30.04 in 10.0 mi North 5.8 mph - N/A   Clear
6:35 AM 69.1 °F - 63.0 °F 81% 30.04 in 10.0 mi North 6.9 mph - N/A   Clear
6:55 AM 69.1 °F - 63.1 °F 81% 30.04 in 10.0 mi Calm Calm - N/A   Clear
7:15 AM 72.1 °F - 64.6 °F 77% 30.04 in 10.0 mi Calm Calm - N/A   Clear
7:35 AM 75.7 °F - 65.7 °F 71% 30.04 in 10.0 mi Calm Calm - N/A   Clear
7:55 AM 76.6 °F - 65.3 °F 68% 30.04 in 10.0 mi North - - N/A   Clear
8:15 AM 79.2 °F - 64.8 °F 61% 30.04 in 10.0 mi North - - N/A   Clear
8:35 AM 81.1 °F 82.9 °F 64.9 °F 58% 30.04 in 10.0 mi SSE 3.5 mph - N/A   Clear
8:55 AM 82.6 °F 84.5 °F 65.5 °F 56% 30.04 in 10.0 mi South 5.8 mph - N/A   Clear
9:15 AM 84.4 °F 86.6 °F 65.8 °F 54% 30.04 in 10.0 mi SSW 3.5 mph - N/A   Clear
9:35 AM 86.4 °F 88.4 °F 65.5 °F 50% 30.02 in 10.0 mi North - - N/A   Clear
9:55 AM 88.3 °F 89.9 °F 64.8 °F 45% 30.02 in 10.0 mi South 4.6 mph - N/A   Clear
10:15 AM 90.0 °F 91.3 °F 64.0 °F 42% 30.02 in 10.0 mi North - - N/A   Clear
10:35 AM 89.8 °F 90.7 °F 63.5 °F 41% 30.02 in 10.0 mi North - - N/A   Clear
10:55 AM 92.1 °F 93.2 °F 63.5 °F 38% 30.01 in 10.0 mi North - - N/A   Clear
11:15 AM 93.6 °F 93.8 °F 61.5 °F 34% 30.01 in 10.0 mi North - - N/A   Clear
11:35 AM 93.7 °F 94.1 °F 61.2 °F 34% 30.00 in 10.0 mi North - - N/A   Clear
11:55 AM 95.5 °F 96.0 °F 61.0 °F 32% 30.00 in 10.0 mi North - - N/A   Clear
12:15 PM 97.0 °F 96.5 °F 59.0 °F 28% 29.99 in 10.0 mi SSW 8.1 mph - N/A   Clear
12:35 PM 98.1 °F 98.1 °F 59.9 °F 28% 29.99 in 10.0 mi SW 4.6 mph - N/A   Clear
12:55 PM 100.0 °F 100.2 °F 59.7 °F 26% 29.98 in 10.0 mi SSW 11.5 mph - N/A   Clear
1:15 PM 98.8 °F 98.7 °F 59.0 °F 27% 29.98 in 10.0 mi WSW 8.1 mph - N/A   Clear
1:35 PM 100.6 °F 100.0 °F 57.2 °F 24% 29.98 in 10.0 mi SW 10.4 mph 16.1 mph N/A   Clear
1:55 PM 100.8 °F 100.3 °F 57.4 °F 24% 29.97 in 10.0 mi South 8.1 mph 18.4 mph N/A   Clear
2:15 PM 100.9 °F 100.5 °F 57.7 °F 24% 29.97 in 10.0 mi SSW 9.2 mph - N/A   Clear
2:35 PM 101.8 °F 101.9 °F 58.5 °F 24% 29.96 in 10.0 mi South 10.4 mph - N/A   Clear
2:55 PM 101.8 °F 101.4 °F 58.1 °F 23% 29.95 in 10.0 mi South 6.9 mph - N/A   Clear
3:15 PM 102.6 °F 101.9 °F 57.4 °F 22% 29.95 in 10.0 mi South 9.2 mph - N/A   Clear
3:35 PM 102.2 °F 101.9 °F 58.3 °F 23% 29.95 in 10.0 mi SSW 8.1 mph - N/A   Clear
3:55 PM 102.9 °F 103.0 °F 57.9 °F 23% 29.94 in 10.0 mi South 10.4 mph - N/A   Clear
4:15 PM 103.1 °F 102.7 °F 57.6 °F 22% 29.94 in 10.0 mi South 13.8 mph 17.3 mph N/A   Clear
4:35 PM 103.3 °F 102.4 °F 56.8 °F 21% 29.93 in 10.0 mi South 9.2 mph - N/A   Clear
5:15 PM 102.6 °F 101.4 °F 55.9 °F 21% 29.93 in 10.0 mi South 9.2 mph - N/A   Clear
5:35 PM 102.4 °F 101.6 °F 56.7 °F 22% 29.92 in 10.0 mi SSW 12.7 mph - N/A   Clear
5:55 PM 102.4 °F 102.2 °F 57.6 °F 23% 29.92 in 10.0 mi South 8.1 mph 17.3 mph N/A   Clear
6:15 PM 101.5 °F 101.3 °F 58.8 °F 24% 29.92 in 10.0 mi South 6.9 mph - N/A   Clear
6:35 PM 100.2 °F 100.5 °F 59.2 °F 26% 29.92 in 10.0 mi SW 5.8 mph - N/A   Clear
6:55 PM 99.5 °F 98.9 °F 58.3 °F 25% 29.91 in 10.0 mi SW 9.2 mph 16.1 mph N/A   Clear
7:15 PM 98.2 °F 98.9 °F 60.6 °F 29% 29.91 in 10.0 mi WSW 6.9 mph - N/A   Clear
7:35 PM 95.4 °F 98.6 °F 66.0 °F 38% 29.91 in 10.0 mi WSW 3.5 mph - N/A   Clear
7:55 PM 94.1 °F 98.9 °F 68.2 °F 43% 29.91 in 10.0 mi Calm Calm - N/A   Clear
8:15 PM 92.1 °F 98.8 °F 71.1 °F 50% 29.91 in 10.0 mi Calm Calm - N/A   Clear
8:35 PM 88.9 °F 96.1 °F 72.1 °F 58% 29.91 in 10.0 mi Calm Calm - N/A   Clear
8:55 PM 85.5 °F 92.6 °F 73.2 °F 67% 29.91 in 10.0 mi Calm Calm - N/A   Clear
9:15 PM 84.6 °F 90.3 °F 72.1 °F 66% 29.91 in 10.0 mi Calm Calm - N/A   Clear
9:35 PM 83.3 °F 88.4 °F 71.6 °F 68% 29.91 in 10.0 mi Calm Calm - N/A   Clear
9:55 PM 82.9 °F 87.5 °F 71.1 °F 67% 29.92 in 10.0 mi Calm Calm - N/A   Clear
10:15 PM 80.6 °F 84.2 °F 70.9 °F 72% 29.92 in 10.0 mi Calm Calm - N/A   Clear
10:35 PM 79.0 °F - 70.9 °F 76% 29.92 in 10.0 mi Calm Calm - N/A   Clear
10:55 PM 79.3 °F - 70.2 °F 73% 29.92 in 10.0 mi Calm Calm - N/A   Clear
11:15 PM 78.1 °F - 69.8 °F 76% 29.92 in 7.0 mi Calm Calm - N/A   Clear
11:35 PM 77.7 °F - 67.5 °F 71% 29.92 in 10.0 mi South 3.5 mph - N/A   Clear
11:55 PM 76.6 °F - 68.0 °F 75% 29.92 in 10.0 mi South 4.6 mph - N/A   Clear